[[{"header":{"parameterUnit":"m.s-1","parameterCategory":1,"la1":30.2991,"la2":30.254,"lo1":-89.0895,"lo2":-89.0444,"dy":0.0017,"dx":0.0017,"nx":28,"ny":28,"refTime":"2023-09-20T09:00:00:Z","depth":0,"parameterNumber":2,"parameterNumberName":"U-component_of_WINDS"},"data":[0,0,0,0,0,0,0,0,0,0,0,0,0,0,0,0,0,0,0,0,0,0,0,0,0,0,0,0,0,0,0,0,0,0,0,0,0,0,0,0,0,0,0,0,0,0,0,0,0,0,0,0,0,0,0,0,0,0,-3.154,-3.154,0,-3.1527,-3.1527,-3.1527,-3.1376,-3.1372,-3.1368,-3.1364,-3.1354,-3.1357,-3.136,0,0,0,0,0,0,0,0,0,0,0,0,0,-3.1437,-3.1439,-3.154,-3.154,-3.154,-3.1527,-3.1527,-3.1527,-3.1376,-3.1372,-3.1367,-3.1363,-3.1353,-3.1356,-3.136,0,0,0,0,0,0,0,0,0,0,0,0,0,-3.1459,-3.144,-3.154,-3.1463,-3.1456,-3.1527,-3.1527,-3.1527,-3.1377,-3.1371,-3.1366,-3.136,-3.1351,-3.1356,-3.1361,-3.1506,0,0,-3.1376,-3.1378,0,0,0,0,0,0,0,0,-3.1458,-3.1463,-3.1475,-3.1469,-3.1461,-3.1447,-3.1486,-3.152,-3.1379,-3.1407,-3.1364,-3.1358,-3.139,-3.1391,-3.1401,-3.1505,-3.1505,-3.1376,-3.1379,-3.1381,-3.1383,0,0,0,0,0,0,0,-3.1456,-3.1462,-3.1535,-3.1475,-3.1467,-3.143,-3.1427,-3.1492,-3.1431,-3.1404,-3.1393,-3.1394,-3.1385,-3.1397,-3.14,-3.1505,-3.1376,-3.1381,-3.1384,-3.1385,-3.1725,-3.173,0,0,0,0,0,0,-3.1465,-3.1462,-3.1536,-3.1535,-3.1445,-3.1436,-3.1433,-3.1457,-3.143,-3.142,-3.1399,-3.1387,-3.1391,-3.1394,-3.1399,-3.1565,-3.1381,-3.1386,-3.1389,-3.1719,-3.1726,-3.1732,0,0,0,0,0,0,-3.1464,-3.1473,-3.1536,-3.1495,-3.1501,-3.1444,-3.1473,-3.146,-3.1472,-3.1425,-3.1414,-3.1422,-3.1387,-3.1392,-3.1479,-3.1562,-3.1388,-3.1393,-3.1711,-3.1721,-3.1729,-3.1899,0,0,0,0,0,0,-3.1461,-3.1473,-3.1528,-3.1498,-3.1503,-3.1617,-3.1478,-3.1464,-3.148,-3.1465,-3.1444,-3.1435,-3.1383,-3.1473,-3.1484,-3.1566,-3.1396,-3.1704,-3.1716,-3.1726,-3.1886,-3.1913,-3.1936,0,0,0,0,0,-3.1458,-3.1577,-3.1531,-3.1541,-3.157,-3.1622,-3.1626,-3.1562,-3.1488,-3.1542,-3.1511,-3.1436,-3.1552,-3.1483,-3.1495,-3.1579,-3.1698,-3.1712,-3.1725,-3.1875,-3.1908,-3.1936,0,0,0,0,0,0,-3.162,-3.1572,-3.152,-3.1634,-3.1633,-3.1597,-3.1663,-3.1599,-3.162,-3.1605,-3.1526,-3.1522,-3.1622,-3.1609,-3.1534,-3.1717,-3.1612,-3.1628,-3.1721,-3.1752,-3.1777,-3.1778,-3.1401,0,0,0,0,0,-3.1669,-3.1715,-3.1671,-3.1775,-3.1777,-3.1721,-3.1741,-3.1692,-3.1688,-3.1688,-3.1664,-3.1664,-3.17,-3.1725,-3.1756,-3.1884,-3.1876,-3.1947,-3.1972,-3.1993,-3.2008,-3.2073,-3.2104,-3.1777,-3.1777,-3.1777,0,0,-3.1771,-3.175,-3.1784,-3.1807,-3.18,-3.185,-3.1721,-3.178,-3.1815,-3.1697,-3.1777,-3.176,-3.1755,-3.1863,-3.1909,-3.1855,-3.2097,-3.2011,-3.2028,-3.2031,-3.209,-3.2121,-3.2149,-3.1787,-3.1785,-3.1783,0,0,-3.198,-3.197,-3.2054,-3.205,-3.2041,-3.2003,-3.2023,-3.1996,-3.198,-3.2059,-3.197,-3.2013,-3.2077,-3.2076,-3.2085,-3.2293,-3.2224,-3.2305,-3.2436,-3.25,-3.2526,-3.2548,-3.2621,-3.2649,-3.232,-3.2321,-3.2321,0,-3.2108,-3.2178,-3.2106,-3.2169,-3.2181,-3.2075,-3.2159,-3.2159,-3.2163,-3.2173,-3.2113,-3.219,-3.2179,-3.2284,-3.2335,-3.2346,-3.2366,-3.2307,-3.2528,-3.255,-3.257,-3.2638,-3.2666,-3.2331,-3.233,-3.2329,-3.2328,0,-3.2334,-3.2384,-3.2454,-3.2457,-3.2477,-3.2551,-3.2491,-3.252,-3.2469,-3.2437,-3.2518,-3.2501,-3.2526,-3.2548,-3.2499,-3.2646,-3.2613,-3.2542,-3.2434,-3.2612,-3.2675,-3.2701,-3.2345,-3.2341,-3.2338,-3.2336,0,0,-3.2646,-3.2607,-3.2634,-3.2633,-3.2616,-3.2653,-3.2722,-3.2745,-3.2771,-3.2776,-3.2832,-3.2888,-3.2821,-3.2831,-3.2781,-3.2838,-3.3002,-3.2759,-3.2758,-3.2804,-3.3161,-3.3214,-3.3246,-3.2956,-3.2961,-3.2965,-3.3161,0,-3.2847,-3.2961,-3.2898,-3.3021,-3.3065,-3.2964,-3.3024,-3.302,-3.2992,-3.3026,-3.2995,-3.3035,-3.2945,-3.295,-3.3002,-3.2971,-3.3073,-3.2956,-3.3007,-3.301,-3.301,-3.3279,-3.3335,-3.3521,-3.3186,-3.319,-3.3193,0,-3.3096,-3.311,-3.3238,-3.3209,-3.3226,-3.3281,-3.3295,-3.3329,-3.3322,-3.3298,-3.3308,-3.3244,-3.331,-3.3205,-3.3294,-3.3216,-3.3233,-3.3221,-3.3227,-3.3228,-3.3111,-3.3287,-3.3579,-3.3607,-3.3231,-3.3228,-3.3225,0,-3.3309,-3.336,-3.3442,-3.3445,-3.3415,-3.3455,-3.3445,-3.3432,-3.3449,-3.3463,-3.3473,-3.3495,-3.3507,-3.3525,-3.3469,-3.3398,-3.3566,-3.3456,-3.3547,-3.3548,-3.3586,-3.3584,-3.3884,-3.36,-3.3599,-3.3599,-3.3598,0,-3.3539,-3.3621,-3.3537,-3.3587,-3.3675,-3.3602,-3.3692,-3.367,-3.366,-3.3704,-3.3619,-3.3663,-3.3587,-3.3623,-3.358,-3.366,-3.3666,-3.3648,-3.3635,-3.3655,-3.3657,-3.3664,-3.3649,-3.3606,-3.3604,-3.3603,-3.3602,0,-3.3791,-3.3739,-3.3821,-3.3785,-3.3778,-3.3844,-3.3813,-3.3859,-3.3824,-3.3882,-3.3891,-3.3838,-3.3876,-3.3822,-3.3855,-3.3826,-3.3935,-3.3904,-3.3937,-3.3927,-3.4021,-3.4012,-3.4335,-3.4373,-3.4066,-3.4069,-3.4072,0,-3.3941,-3.4001,-3.397,-3.3993,-3.3987,-3.4026,-3.4042,-3.3973,-3.3993,-3.3989,-3.4035,-3.4066,-3.4087,-3.4153,-3.4117,-3.4142,-3.411,-3.4221,-3.4113,-3.413,-3.411,-3.4106,-3.4111,-3.4243,-3.4247,-3.425,-3.4252,0,-3.4211,-3.4182,-3.4208,-3.4225,-3.4247,-3.4257,-3.4262,-3.4286,-3.4213,-3.4241,-3.4277,-3.4294,-3.4327,-3.4358,-3.4373,-3.4363,-3.4296,-3.4287,-3.4309,-3.4329,-3.4345,-3.4336,-3.3996,-3.4279,-3.4277,-3.4275,-3.4273,-3.4272,-3.4415,-3.4463,-3.4448,-3.448,-3.4476,-3.4481,-3.4521,-3.4491,-3.4521,-3.4541,-3.4498,-3.4546,-3.4537,-3.455,-3.4547,-3.4584,-3.4535,-3.4568,-3.4575,-3.4584,-3.4598,-3.434,-3.4586,-3.4586,-3.4585,-3.4584,-3.4584,0,-3.4679,-3.4665,-3.4695,-3.4702,-3.4727,-3.4661,-3.4662,-3.4687,-3.473,-3.4726,-3.4748,-3.479,-3.482,-3.4787,-3.4811,-3.4846,-3.4816,-3.4855,-3.4851,-3.4849,-3.4641,-3.4618,-3.4879,-3.4879,-3.4879,-3.4879,-3.4878,-3.4878,-3.482,-3.4896,-3.4865,-3.4938,-3.4923,-3.4967,-3.4974,-3.4978,-3.4975,-3.5025,-3.5049,-3.5027,-3.5011,-3.5033,-3.5057,-3.5047,-3.5059,-3.5109,-3.5087,-3.4893,-3.4864,-3.4836,-3.4815,-3.5112,-3.5113,-3.5292,-3.5294,-3.5295]},{"header":{"parameterUnit":"m.s-1","parameterCategory":1,"la1":30.2991,"la2":30.254,"lo1":-89.0895,"lo2":-89.0444,"dy":0.0017,"dx":0.0017,"nx":28,"ny":28,"refTime":"2023-09-20T09:00:00:Z","depth":0,"parameterNumber":3,"parameterNumberName":"V-component_of_WINDS"},"data":[0,0,0,0,0,0,0,0,0,0,0,0,0,0,0,0,0,0,0,0,0,0,0,0,0,0,0,0,0,0,0,0,0,0,0,0,0,0,0,0,0,0,0,0,0,0,0,0,0,0,0,0,0,0,0,0,0,0,-1.2561,-1.2562,0,-1.2663,-1.2664,-1.2665,-1.2794,-1.2796,-1.2798,-1.28,-1.2898,-1.2899,-1.2899,0,0,0,0,0,0,0,0,0,0,0,0,0,-1.2471,-1.2472,-1.2561,-1.2562,-1.2563,-1.2662,-1.2664,-1.2665,-1.2794,-1.2796,-1.2799,-1.2801,-1.2898,-1.2899,-1.2899,0,0,0,0,0,0,0,0,0,0,0,0,0,-1.2535,-1.2473,-1.256,-1.264,-1.2648,-1.2662,-1.2664,-1.2665,-1.2793,-1.2797,-1.28,-1.2803,-1.2898,-1.2898,-1.2899,-1.2842,0,0,-1.2902,-1.2903,0,0,0,0,0,0,0,0,-1.2531,-1.2538,-1.2627,-1.2634,-1.2643,-1.2719,-1.2668,-1.2724,-1.2793,-1.2738,-1.2801,-1.2804,-1.2835,-1.2842,-1.2854,-1.2847,-1.2851,-1.2902,-1.2903,-1.2903,-1.2904,0,0,0,0,0,0,0,-1.2527,-1.2534,-1.2601,-1.2628,-1.2638,-1.2668,-1.268,-1.2679,-1.2767,-1.2743,-1.2753,-1.2763,-1.2841,-1.2852,-1.2857,-1.2852,-1.2902,-1.2903,-1.2904,-1.2904,-1.2801,-1.2798,0,0,0,0,0,0,-1.2511,-1.253,-1.2598,-1.2604,-1.2594,-1.2667,-1.2681,-1.2691,-1.2768,-1.2783,-1.276,-1.2769,-1.2849,-1.2856,-1.2861,-1.2796,-1.2903,-1.2904,-1.2905,-1.2804,-1.28,-1.2797,0,0,0,0,0,0,-1.2509,-1.2516,-1.2593,-1.257,-1.2582,-1.2665,-1.2676,-1.2692,-1.2704,-1.2781,-1.2797,-1.2757,-1.2852,-1.2859,-1.2846,-1.2802,-1.2905,-1.2906,-1.2808,-1.2803,-1.2799,-1.2668,0,0,0,0,0,0,-1.2506,-1.2514,-1.2495,-1.2568,-1.2583,-1.2578,-1.2673,-1.2691,-1.2706,-1.2718,-1.2782,-1.2795,-1.2855,-1.2844,-1.2847,-1.2805,-1.2906,-1.2812,-1.2806,-1.28,-1.2676,-1.2659,-1.2644,0,0,0,0,0,-1.2502,-1.2453,-1.2493,-1.2501,-1.256,-1.2575,-1.2583,-1.2655,-1.2702,-1.2682,-1.2731,-1.2793,-1.2807,-1.2841,-1.2846,-1.2803,-1.2815,-1.2808,-1.2801,-1.2684,-1.2663,-1.2645,0,0,0,0,0,0,-1.237,-1.2464,-1.251,-1.2484,-1.2521,-1.2597,-1.2574,-1.263,-1.2653,-1.2663,-1.2749,-1.2762,-1.2737,-1.277,-1.2806,-1.2751,-1.282,-1.2813,-1.273,-1.271,-1.2695,-1.2685,-1.2907,0,0,0,0,0,-1.2338,-1.2345,-1.2426,-1.2395,-1.2412,-1.2489,-1.2499,-1.2551,-1.2592,-1.2607,-1.2656,-1.2691,-1.2704,-1.271,-1.2725,-1.2683,-1.2697,-1.2657,-1.264,-1.2627,-1.2618,-1.2596,-1.2577,-1.2772,-1.2772,-1.2772,0,0,-1.2272,-1.2324,-1.2323,-1.237,-1.2405,-1.2407,-1.2501,-1.25,-1.2502,-1.2607,-1.2596,-1.2633,-1.2678,-1.2649,-1.2639,-1.2676,-1.2568,-1.2617,-1.2606,-1.2605,-1.2586,-1.2567,-1.2551,-1.2767,-1.2768,-1.2769,0,0,-1.2151,-1.2193,-1.217,-1.2204,-1.2256,-1.2309,-1.2303,-1.2371,-1.24,-1.2392,-1.247,-1.2473,-1.2493,-1.2521,-1.2538,-1.2428,-1.2485,-1.2431,-1.2345,-1.2322,-1.2307,-1.2293,-1.2251,-1.2235,-1.2424,-1.2423,-1.2423,0,-1.206,-1.2069,-1.2151,-1.2145,-1.2162,-1.226,-1.2236,-1.2264,-1.2317,-1.2326,-1.2367,-1.2394,-1.2431,-1.2409,-1.2382,-1.2394,-1.2388,-1.2422,-1.2303,-1.229,-1.2279,-1.2239,-1.2223,-1.2416,-1.2417,-1.2418,-1.2418,0,-1.1954,-1.1958,-1.1934,-1.1985,-1.2,-1.1985,-1.2062,-1.2067,-1.2118,-1.2165,-1.2154,-1.2203,-1.2229,-1.2229,-1.2278,-1.2213,-1.2233,-1.2288,-1.2358,-1.2252,-1.2216,-1.2201,-1.2406,-1.2408,-1.2411,-1.2412,0,0,-1.1749,-1.1847,-1.1836,-1.186,-1.1926,-1.1929,-1.1918,-1.1946,-1.1947,-1.1981,-1.1971,-1.1986,-1.2037,-1.2056,-1.211,-1.209,-1.1996,-1.2147,-1.2149,-1.2113,-1.1923,-1.1878,-1.1859,-1.2036,-1.2033,-1.2031,-1.1918,0,-1.1637,-1.1625,-1.1698,-1.1665,-1.1668,-1.1762,-1.1752,-1.1789,-1.1833,-1.1841,-1.1889,-1.1897,-1.1965,-1.1977,-1.1962,-1.201,-1.1958,-1.202,-1.2023,-1.2023,-1.2005,-1.1841,-1.1794,-1.1684,-1.1904,-1.1902,-1.19,0,-1.1505,-1.1533,-1.15,-1.1566,-1.1571,-1.156,-1.1591,-1.1598,-1.1642,-1.1675,-1.1697,-1.176,-1.175,-1.1821,-1.1808,-1.1848,-1.1855,-1.1879,-1.1876,-1.1876,-1.1952,-1.1832,-1.1651,-1.1633,-1.188,-1.1881,-1.1883,0,-1.1353,-1.1384,-1.1368,-1.1386,-1.1464,-1.1453,-1.1485,-1.1533,-1.1544,-1.1571,-1.1579,-1.1603,-1.1615,-1.1632,-1.1698,-1.1744,-1.1676,-1.1753,-1.17,-1.1697,-1.1677,-1.1677,-1.149,-1.1688,-1.1688,-1.1689,-1.1689,0,-1.1218,-1.1193,-1.1301,-1.129,-1.1264,-1.1349,-1.1321,-1.1361,-1.1403,-1.14,-1.1483,-1.1478,-1.1569,-1.1573,-1.1626,-1.1604,-1.161,-1.1634,-1.1648,-1.1624,-1.162,-1.1626,-1.1634,-1.1685,-1.1685,-1.1686,-1.1687,0,-1.1043,-1.1115,-1.1103,-1.1179,-1.1197,-1.1174,-1.1238,-1.1229,-1.128,-1.1275,-1.1278,-1.1356,-1.1365,-1.1435,-1.146,-1.1495,-1.1453,-1.1483,-1.1437,-1.1446,-1.1387,-1.139,-1.1194,-1.1171,-1.1387,-1.1385,-1.1383,0,-1.095,-1.0933,-1.1008,-1.1013,-1.1041,-1.1048,-1.1061,-1.1143,-1.1152,-1.1201,-1.1186,-1.1203,-1.1221,-1.1231,-1.1288,-1.1307,-1.1336,-1.1266,-1.1339,-1.1315,-1.1329,-1.1328,-1.1325,-1.1249,-1.1246,-1.1244,-1.1242,0,-1.0775,-1.0812,-1.0828,-1.0856,-1.0869,-1.0895,-1.0925,-1.0924,-1.1015,-1.1021,-1.1033,-1.1046,-1.1073,-1.1086,-1.1116,-1.1146,-1.1207,-1.122,-1.1207,-1.1181,-1.1153,-1.1163,-1.139,-1.1222,-1.1224,-1.1226,-1.1227,-1.1227,-1.0636,-1.0625,-1.0675,-1.0689,-1.0722,-1.0748,-1.0744,-1.0794,-1.0806,-1.0834,-1.0883,-1.0886,-1.093,-1.0976,-1.1001,-1.1004,-1.104,-1.1023,-1.1018,-1.1012,-1.0998,-1.1157,-1.101,-1.1011,-1.1011,-1.1012,-1.1012,0,-1.0462,-1.0499,-1.0513,-1.0553,-1.0564,-1.0625,-1.0662,-1.0666,-1.0669,-1.0705,-1.0721,-1.0733,-1.0748,-1.0806,-1.0827,-1.0817,-1.0845,-1.0819,-1.0818,-1.0823,-1.0966,-1.0973,-1.0795,-1.0795,-1.0796,-1.0796,-1.0796,-1.0796,-1.0372,-1.0355,-1.0398,-1.0396,-1.0434,-1.044,-1.0455,-1.0479,-1.0508,-1.0519,-1.0532,-1.0571,-1.0616,-1.064,-1.0655,-1.0672,-1.0673,-1.0636,-1.0661,-1.0793,-1.0814,-1.0833,-1.0839,-1.0637,-1.0637,-1.0518,-1.0517,-1.0516]}]]